Hourly Data Report for August 29, 2021

FLIN FLON
MANITOBA
Current Station Operator: ECCC - MSC

54°41'00.000" N
101°41'00.000" W
303.90 m
5050919
71954
WFO

Download Data

Hourly Data (August 2021)
Hourly Data Report for August 29, 2021
TIME
LST
Temp Definition
°C
Dew Point Definition
°C
Rel Hum Definition
%
Precip. Amount Definition
mm

Wind Dir Definition
10's deg

Wind Spd Definition
km/h
Visibility Definition
km
Stn Press Definition
kPa
Hmdx Definition


Wind Chill Definition


Weather Definition


00:00 11.8 11.5 99 0.0   0   97.58     LegendNANA
01:00 11.3 11.0 98 0.0   0   97.58     LegendNANA
02:00 11.2 10.9 99 0.0 3 3   97.57     LegendNANA
03:00 10.9 10.1 94 0.0 5 4   97.60     LegendNANA
04:00 10.5 9.5 94 0.0 3 3   97.61     LegendNANA
05:00 9.8 8.8 93 0.0 36 6   97.64     LegendNANA
06:00 10.6 9.6 94 0.0 2 6   97.69     LegendNANA
07:00 11.5 10.2 92 0.0 5 5   97.72     LegendNANA
08:00 13.1 11.2 88 0.0 1 5   97.73     LegendNANA
09:00 15.2 11.8 80 0.0 1 8   97.73     LegendNANA
10:00 16.7 11.2 70 0.0 7 5   97.73     LegendNANA
11:00 19.4 10.6 57 0.0 11 5   97.73     LegendNANA
12:00 20.7 10.8 53 0.0 36 10   97.73     LegendNANA
13:00 21.2 10.3 50 0.0 21 8   97.71     LegendNANA
14:00 20.9 11.2 54 0.0 17 12   97.69     LegendNANA
15:00 21.5 11.4 52 0.0 18 13   97.68     LegendNANA
16:00 21.5 11.9 54 0.0 16 11   97.66     LegendNANA
17:00 22.9 10.9 47 0.0 27 11   97.63 25   LegendNANA
18:00 22.6 11.0 48 0.0 24 11   97.64     LegendNANA
19:00 19.8 12.6 63 0.0 22 8   97.64     LegendNANA
20:00 17.1 12.3 73 0.0 18 5   97.66     LegendNANA
21:00 16.0 12.9 82 0.0 21 5   97.69     LegendNANA
22:00 14.9 12.7 87 0.0 21 5   97.71     LegendNANA
23:00 13.3 12.4 94 0.0 11 2   97.71     LegendNANA

Notes on Data Quality.

Legend

  • E = Estimated
  • M = Missing
  • NA = Not Available*
  • [empty] = Indicates an unobserved value
Date modified: